| time (UTC) | temp F | wind direction | speed MPH | gust MPH | rain 1hr in | rain 24hr in | rain mn in | humidity % | barometer mb |
| 20260905103726 | 67 | 53 | 2.0 | 7.0 | 0.00 | 0.11 | 0.00 | 71 | 1020.8 |
| 20260905103618 | 67 | 144 | 3.0 | 16.0 | 0.00 | 0.11 | 0.00 | 71 | 1020.9 |
| 20260905102709 | 68 | 193 | 4.0 | 16.0 | 0.00 | 0.11 | 0.00 | 70 | 1020.8 |
| 20260905102159 | 67 | 295 | 3.0 | 11.0 | 0.00 | 0.11 | 0.00 | 74 | 1020.7 |
| 20260905101650 | 67 | 303 | 4.0 | 14.0 | 0.00 | 0.11 | 0.00 | 73 | 1020.7 |
| 20260905101242 | 67 | 276 | 4.0 | 14.0 | 0.00 | 0.11 | 0.00 | 72 | 1020.7 |
| 20260905100736 | 67 | 283 | 3.0 | 12.0 | 0.00 | 0.11 | 0.00 | 72 | 1020.7 |
| 20260905100626 | 67 | 215 | 4.0 | 11.0 | 0.00 | 0.11 | 0.00 | 74 | 1020.7 |
| 20260905095715 | 67 | 220 | 3.0 | 11.0 | 0.00 | 0.11 | 0.00 | 74 | 1020.6 |
| 20260905095209 | 67 | 255 | 3.0 | 10.0 | 0.00 | 0.11 | 0.00 | 74 | 1020.6 |
| 20260905094659 | 67 | 280 | 4.0 | 11.0 | 0.00 | 0.11 | 0.00 | 74 | 1020.6 |
| 20260905094546 | 67 | 268 | 4.0 | 11.0 | 0.00 | 0.11 | 0.00 | 74 | 1020.6 |
| 20260905093639 | 66 | 280 | 4.0 | 13.0 | 0.00 | 0.11 | 0.00 | 76 | 1020.5 |
| 20260905093228 | 66 | 219 | 5.0 | 14.0 | 0.00 | 0.11 | 0.00 | 77 | 1020.5 |
| 20260905092722 | 66 | 231 | 5.0 | 14.0 | 0.00 | 0.11 | 0.00 | 77 | 1020.4 |
| 20260905092212 | 66 | 185 | 6.0 | 14.0 | 0.00 | 0.11 | 0.00 | 78 | 1020.3 |
| 20260905091702 | 65 | 176 | 5.0 | 16.0 | 0.00 | 0.11 | 0.00 | 78 | 1020.3 |
| 20260905091154 | 65 | 183 | 5.0 | 16.0 | 0.00 | 0.11 | 0.00 | 78 | 1020.2 |
| 20260905090647 | 65 | 226 | 4.0 | 13.0 | 0.00 | 0.11 | 0.00 | 79 | 1020.1 |
| 20260905090150 | 65 | 231 | 3.0 | 10.0 | 0.00 | 0.11 | 0.00 | 81 | 1020.2 |
| 20260905085635 | 65 | 210 | 3.0 | 10.0 | 0.00 | 0.11 | 0.00 | 81 | 1020.1 |
| 20260905085226 | 64 | 216 | 3.0 | 10.0 | 0.00 | 0.11 | 0.00 | 82 | 1020.1 |
| 20260905084717 | 64 | 133 | 3.0 | 10.0 | 0.00 | 0.11 | 0.00 | 82 | 1020.1 |
| 20260905084208 | 64 | 220 | 3.0 | 9.0 | 0.00 | 0.11 | 0.00 | 82 | 1020.1 |
| 20260905083657 | 63 | 188 | 3.0 | 9.0 | 0.00 | 0.11 | 0.00 | 84 | 1020.1 |
| 20260905083149 | 63 | 241 | 4.0 | 8.0 | 0.00 | 0.11 | 0.00 | 84 | 1020.0 |
| 20260905082645 | 62 | 231 | 4.0 | 12.0 | 0.00 | 0.11 | 0.00 | 85 | 1020.0 |
| 20260905082533 | 62 | 333 | 4.0 | 12.0 | 0.00 | 0.11 | 0.00 | 84 | 1019.9 |
| 20260905081630 | 62 | 235 | 3.0 | 8.0 | 0.00 | 0.11 | 0.00 | 85 | 1019.8 |
| 20260905081222 | 62 | 226 | 3.0 | 8.0 | 0.00 | 0.11 | 0.00 | 86 | 1019.8 |
| 20260905080713 | 62 | 218 | 3.0 | 11.0 | 0.00 | 0.11 | 0.00 | 85 | 1019.7 |
| 20260905080207 | 61 | 213 | 4.0 | 11.0 | 0.00 | 0.11 | 0.00 | 87 | 1019.6 |
| 20260905075659 | 61 | 209 | 3.0 | 9.0 | 0.00 | 0.11 | 0.00 | 87 | 1019.6 |
| 20260905075150 | 61 | 257 | 4.0 | 8.0 | 0.00 | 0.11 | 0.00 | 88 | 1019.6 |
| 20260905074943 | 60 | 234 | 4.0 | 9.0 | 0.00 | 0.11 | 0.00 | 88 | 1019.5 |
| 20260905074534 | 60 | 180 | 3.0 | 9.0 | 0.00 | 0.11 | 0.00 | 88 | 1019.5 |
| 20260905073629 | 60 | 200 | 4.0 | 8.0 | 0.00 | 0.11 | 0.00 | 88 | 1019.4 |
| 20260905073124 | 60 | 272 | 4.0 | 10.0 | 0.00 | 0.11 | 0.00 | 88 | 1019.3 |
| 20260905072718 | 60 | 245 | 4.0 | 10.0 | 0.00 | 0.11 | 0.00 | 89 | 1019.3 |
| 20260905072209 | 59 | 224 | 4.0 | 9.0 | 0.00 | 0.11 | 0.00 | 89 | 1019.1 |
| 20260905071703 | 59 | 223 | 4.0 | 9.0 | 0.00 | 0.11 | 0.00 | 89 | 1019.1 |
| 20260905071153 | 59 | 161 | 4.0 | 10.0 | 0.00 | 0.11 | 0.00 | 90 | 1019.0 |
| 20260905070646 | 59 | 195 | 3.0 | 10.0 | 0.00 | 0.11 | 0.00 | 91 | 1019.0 |
| 20260905070534 | 58 | 270 | 2.0 | 7.0 | 0.00 | 0.11 | 0.00 | 91 | 1019.0 |
| 20260905065631 | 58 | 183 | 2.0 | 7.0 | 0.00 | 0.11 | 0.00 | 91 | 1018.9 |
| 20260905065123 | 58 | 270 | 3.0 | 7.0 | 0.00 | 0.11 | 0.00 | 92 | 1018.9 |
| 20260905064617 | 58 | 203 | 2.0 | 8.0 | 0.00 | 0.11 | 0.00 | 92 | 1018.9 |
| 20260905064209 | 57 | 173 | 2.0 | 8.0 | 0.00 | 0.11 | 0.00 | 92 | 1018.8 |
| 20260905063703 | 57 | 245 | 3.0 | 7.0 | 0.00 | 0.11 | 0.00 | 93 | 1018.8 |
| 20260905063155 | 57 | 169 | 3.0 | 7.0 | 0.00 | 0.11 | 0.00 | 93 | 1018.8 |
| 20260905062947 | 57 | 258 | 2.0 | 9.0 | 0.00 | 0.11 | 0.00 | 93 | 1018.7 |
| 20260905062138 | 57 | 228 | 2.0 | 9.0 | 0.00 | 0.11 | 0.00 | 93 | 1018.6 |
| 20260905061933 | 56 | 208 | 2.0 | 6.0 | 0.00 | 0.11 | 0.00 | 93 | 1018.5 |
| 20260905061126 | 56 | 198 | 3.0 | 6.0 | 0.00 | 0.11 | 0.00 | 93 | 1018.5 |
| 20260905060616 | 56 | 138 | 3.0 | 6.0 | 0.00 | 0.11 | 0.00 | 94 | 1018.4 |
| 20260905060209 | 56 | 214 | 3.0 | 7.0 | 0.00 | 0.11 | 0.00 | 94 | 1018.3 |
| 20260905055704 | 56 | 190 | 3.0 | 7.0 | 0.00 | 0.11 | 0.00 | 94 | 1018.2 |
| 20260905055155 | 56 | 187 | 3.0 | 6.0 | 0.00 | 0.11 | 0.00 | 94 | 1018.2 |
| 20260905054650 | 56 | 205 | 3.0 | 7.0 | 0.00 | 0.11 | 0.00 | 94 | 1018.2 |
| 20260905054441 | 56 | 218 | 3.0 | 7.0 | 0.00 | 0.11 | 0.00 | 94 | 1018.1 |
| 20260905053633 | 56 | 203 | 3.0 | 7.0 | 0.00 | 0.11 | 0.00 | 94 | 1018.1 |
| 20260905053425 | 56 | 214 | 2.0 | 6.0 | 0.00 | 0.11 | 0.00 | 94 | 1018.0 |
| 20260905052619 | 56 | 228 | 3.0 | 6.0 | 0.00 | 0.11 | 0.00 | 94 | 1018.0 |
| 20260905052111 | 56 | 206 | 3.0 | 7.0 | 0.00 | 0.11 | 0.00 | 94 | 1017.9 |
| 20260905051606 | 56 | 189 | 3.0 | 7.0 | 0.00 | 0.11 | 0.00 | 94 | 1017.8 |
| 20260905051157 | 56 | 201 | 3.0 | 5.0 | 0.00 | 0.11 | 0.00 | 94 | 1017.8 |
| 20260905050651 | 56 | 201 | 3.0 | 5.0 | 0.00 | 0.11 | 0.00 | 94 | 1017.7 |
| 20260905050540 | 56 | 208 | 2.0 | 5.0 | 0.00 | 0.11 | 0.00 | 93 | 1017.7 |
| 20260905045637 | 56 | 257 | 2.0 | 5.0 | 0.00 | 0.11 | 0.00 | 93 | 1017.7 |
| 20260905045128 | 56 | 216 | 3.0 | 5.0 | 0.00 | 0.11 | 0.00 | 93 | 1017.6 |
| 20260905044619 | 56 | 192 | 2.0 | 5.0 | 0.00 | 0.11 | 0.00 | 93 | 1017.6 |
| 20260905044111 | 56 | 222 | 2.0 | 5.0 | 0.00 | 0.11 | 0.00 | 93 | 1017.5 |
| 20260905043608 | 56 | 230 | 2.0 | 7.0 | 0.00 | 0.11 | 0.00 | 93 | 1017.4 |
| 20260905043100 | 56 | 215 | 2.0 | 7.0 | 0.00 | 0.11 | 0.00 | 93 | 1017.3 |
| 20260905042650 | 56 | 232 | 2.0 | 5.0 | 0.00 | 0.11 | 0.00 | 93 | 1017.3 |
| 20260905042145 | 56 | 237 | 2.0 | 7.0 | 0.00 | 0.11 | 0.00 | 93 | 1017.4 |
| 20260905041936 | 56 | 244 | 2.0 | 7.0 | 0.00 | 0.11 | 0.00 | 93 | 1017.3 |
| 20260905041129 | 56 | 228 | 2.0 | 7.0 | 0.00 | 0.11 | 0.00 | 93 | 1017.3 |
| 20260905040620 | 56 | 216 | 2.0 | 7.0 | 0.00 | 0.11 | 0.00 | 93 | 1017.3 |
| 20260905040128 | 56 | 218 | 2.0 | 7.0 | 0.00 | 0.11 | 0.00 | 93 | 1017.3 |
| 20260905035606 | 56 | 216 | 2.0 | 5.0 | 0.00 | 0.11 | 0.00 | 93 | 1017.1 |
| 20260905035456 | 56 | 178 | 2.0 | 5.0 | 0.00 | 0.11 | 0.00 | 93 | 1017.1 |
| 20260905034652 | 56 | 217 | 2.0 | 5.0 | 0.00 | 0.11 | 0.00 | 93 | 1017.0 |
| 20260905034146 | 56 | 174 | 1.0 | 5.0 | 0.00 | 0.11 | 0.00 | 93 | 1017.1 |
| 20260905033938 | 56 | 208 | 2.0 | 6.0 | 0.00 | 0.11 | 0.00 | 93 | 1017.0 |
| 20260905033129 | 56 | 180 | 2.0 | 6.0 | 0.00 | 0.11 | 0.00 | 93 | 1017.0 |
| 20260905032623 | 56 | 198 | 2.0 | 5.0 | 0.00 | 0.11 | 0.00 | 93 | 1016.9 |
| 20260905032114 | 56 | 200 | 2.0 | 7.0 | 0.00 | 0.11 | 0.00 | 93 | 1016.8 |
| 20260905031605 | 56 | 201 | 3.0 | 7.0 | 0.00 | 0.11 | 0.00 | 93 | 1016.8 |
| 20260905031453 | 56 | 213 | 3.0 | 7.0 | 0.00 | 0.11 | 0.00 | 93 | 1016.7 |
| 20260905030548 | 56 | 201 | 3.0 | 6.0 | 0.00 | 0.11 | 0.00 | 93 | 1016.7 |
| 20260905030152 | 56 | 195 | 3.0 | 6.0 | 0.00 | 0.11 | 0.00 | 93 | 1016.8 |
| 20260905025632 | 56 | 190 | 3.0 | 5.0 | 0.00 | 0.11 | 0.00 | 93 | 1016.7 |
| 20260905025125 | 56 | 193 | 2.0 | 5.0 | 0.00 | 0.11 | 0.00 | 93 | 1016.7 |
| 20260905024615 | 56 | 191 | 2.0 | 5.0 | 0.00 | 0.11 | 0.00 | 93 | 1016.7 |
| 20260905024107 | 56 | 174 | 1.0 | 5.0 | 0.00 | 0.11 | 0.00 | 93 | 1016.7 |
| 20260905023557 | 56 | 201 | 1.0 | 4.0 | 0.00 | 0.11 | 0.00 | 93 | 1016.7 |
| 20260905023049 | 56 | 214 | 2.0 | 4.0 | 0.00 | 0.11 | 0.00 | 93 | 1016.6 |
| 20260905022838 | 57 | 203 | 1.0 | 4.0 | 0.00 | 0.11 | 0.00 | 93 | 1016.6 |
| 20260905022638 | 57 | 199 | 2.0 | 4.0 | 0.00 | 0.11 | 0.00 | 93 | 1016.6 |
| 20260905021626 | 57 | 226 | 1.0 | 4.0 | 0.00 | 0.11 | 0.00 | 93 | 1016.5 |
| 20260905021119 | 57 | 216 | 1.0 | 4.0 | 0.00 | 0.11 | 0.00 | 93 | 1016.5 |
| 20260905020608 | 57 | 198 | 2.0 | 5.0 | 0.00 | 0.11 | 0.00 | 93 | 1016.5 |
| 20260905020207 | 57 | 228 | 2.0 | 5.0 | 0.00 | 0.11 | 0.00 | 93 | 1016.5 |
| 20260905015645 | 57 | 205 | 2.0 | 5.0 | 0.00 | 0.11 | 0.00 | 93 | 1016.5 |
| 20260905015140 | 57 | 197 | 2.0 | 4.0 | 0.00 | 0.11 | 0.00 | 93 | 1016.5 |
| 20260905014728 | 57 | 196 | 2.0 | 4.0 | 0.00 | 0.11 | 0.00 | 93 | 1016.5 |
| 20260905014221 | 57 | 222 | 2.0 | 6.0 | 0.00 | 0.11 | 0.00 | 94 | 1016.4 |
| 20260905013729 | 57 | 225 | 2.0 | 6.0 | 0.00 | 0.11 | 0.00 | 94 | 1016.4 |
| 20260905013207 | 57 | 199 | 2.0 | 5.0 | 0.00 | 0.11 | 0.00 | 94 | 1016.2 |
| 20260905012702 | 57 | 195 | 2.0 | 4.0 | 0.00 | 0.11 | 0.00 | 94 | 1016.2 |
| 20260905012153 | 57 | 198 | 2.0 | 5.0 | 0.00 | 0.11 | 0.00 | 94 | 1016.3 |
| 20260905011954 | 57 | 218 | 2.0 | 5.0 | 0.00 | 0.11 | 0.00 | 94 | 1016.3 |
| 20260905011150 | 58 | 193 | 3.0 | 6.0 | 0.00 | 0.11 | 0.00 | 94 | 1016.2 |
| 20260905010724 | 58 | 189 | 3.0 | 6.0 | 0.00 | 0.11 | 0.00 | 94 | 1016.2 |
| 20260905010222 | 58 | 205 | 2.0 | 5.0 | 0.00 | 0.11 | 0.00 | 94 | 1016.2 |
| 20260905005713 | 58 | 193 | 3.0 | 5.0 | 0.00 | 0.11 | 0.00 | 94 | 1016.2 |
| 20260905005207 | 58 | 208 | 2.0 | 5.0 | 0.00 | 0.11 | 0.00 | 93 | 1016.2 |
| 20260905004656 | 58 | 236 | 2.0 | 5.0 | 0.00 | 0.11 | 0.00 | 93 | 1016.2 |
| 20260905004148 | 58 | 201 | 2.0 | 5.0 | 0.00 | 0.11 | 0.00 | 93 | 1016.2 |
| 20260905003638 | 58 | 216 | 2.0 | 5.0 | 0.00 | 0.11 | 0.00 | 93 | 1016.2 |
| 20260905003131 | 58 | 194 | 2.0 | 5.0 | 0.00 | 0.11 | 0.00 | 93 | 1016.1 |
| 20260905002719 | 58 | 195 | 2.0 | 4.0 | 0.00 | 0.11 | 0.00 | 93 | 1016.1 |
| 20260905002210 | 58 | 196 | 2.0 | 4.0 | 0.00 | 0.11 | 0.00 | 93 | 1016.1 |
| 20260905001708 | 58 | 190 | 2.0 | 3.0 | 0.00 | 0.11 | 0.00 | 93 | 1016.1 |
| 20260905001510 | 58 | 213 | 1.0 | 3.0 | 0.00 | 0.11 | 0.00 | 93 | 1016.1 |
| 20260905000658 | 58 | 263 | 1.0 | 3.0 | 0.00 | 0.11 | 0.00 | 93 | 1016.1 |
| 20260905000149 | 58 | 193 | 1.0 | 3.0 | 0.00 | 0.11 | 0.00 | 92 | 1016.0 |
| 20260904235950 | 58 | 193 | 1.0 | 3.0 | 0.00 | 0.11 | 0.00 | 92 | 1016.0 |
| 20260904235133 | 58 | 205 | 0.0 | 3.0 | 0.00 | 0.11 | 0.00 | 92 | 1016.0 |
| 20260904234624 | 58 | 201 | 0.0 | 3.0 | 0.00 | 0.11 | 0.00 | 92 | 1015.9 |
| 20260904234215 | 58 | 216 | 1.0 | 3.0 | 0.00 | 0.11 | 0.00 | 93 | 1016.0 |
| 20260904233706 | 59 | 206 | 1.0 | 3.0 | 0.00 | 0.11 | 0.00 | 93 | 1016.0 |
| 20260904233200 | 59 | 193 | 1.0 | 3.0 | 0.00 | 0.11 | 0.00 | 93 | 1016.0 |
| 20260904232652 | 59 | 201 | 0.0 | 2.0 | 0.00 | 0.11 | 0.00 | 92 | 1015.8 |
| 20260904232146 | 59 | 212 | 0.0 | 1.0 | 0.00 | 0.11 | 0.00 | 92 | 1015.7 |
| 20260904231643 | 59 | 216 | 0.0 | 2.0 | 0.00 | 0.11 | 0.00 | 93 | 1015.8 |
| 20260904231139 | 59 | 222 | 1.0 | 3.0 | 0.00 | 0.11 | 0.00 | 93 | 1015.8 |
| 20260904230633 | 59 | 206 | 1.0 | 3.0 | 0.00 | 0.11 | 0.00 | 93 | 1015.7 |
| 20260904230137 | 60 | 203 | 0.0 | 3.0 | 0.00 | 0.11 | 0.00 | 93 | 1015.7 |
| 20260904225926 | 60 | 202 | 1.0 | 4.0 | 0.00 | 0.11 | 0.00 | 93 | 1015.7 |
| 20260904225204 | 60 | 205 | 0.0 | 4.0 | 0.00 | 0.11 | 0.00 | 93 | 1015.7 |
| 20260904224711 | 60 | 199 | 0.0 | 3.0 | 0.00 | 0.11 | 0.00 | 92 | 1015.7 |
| 20260904224156 | 60 | 207 | 0.0 | 2.0 | 0.00 | 0.11 | 0.00 | 92 | 1015.6 |
| 20260904224151 | 60 | 216 | 0.0 | 2.0 | 0.00 | 0.11 | 0.00 | 92 | 1015.8 |
| 20260904223647 | 60 | 227 | 0.0 | 2.0 | 0.00 | 0.11 | 0.00 | 92 | 1015.7 |
| 20260904223346 | 61 | 201 | 0.0 | 2.0 | 0.00 | 0.11 | 0.00 | 92 | 1015.5 |
| 20260904222131 | 61 | 237 | 0.0 | 2.0 | 0.00 | 0.11 | 0.00 | 93 | 1015.5 |
| 20260904221627 | 61 | 260 | 0.0 | 3.0 | 0.00 | 0.11 | 0.00 | 93 | 1015.5 |
| 20260904221124 | 61 | 189 | 0.0 | 4.0 | 0.00 | 0.11 | 0.00 | 93 | 1015.4 |
| 20260904220616 | 61 | 192 | 0.0 | 2.0 | 0.00 | 0.11 | 0.00 | 93 | 1015.3 |
| 20260904220113 | 62 | 202 | 0.0 | 2.0 | 0.00 | 0.11 | 0.00 | 93 | 1015.3 |
| 20260904215602 | 62 | 216 | 0.0 | 3.0 | 0.00 | 0.11 | 0.11 | 93 | 1015.2 |
| 20260904215152 | 62 | 198 | 0.0 | 3.0 | 0.00 | 0.11 | 0.11 | 93 | 1015.2 |
| 20260904214644 | 62 | 249 | 0.0 | 3.0 | 0.00 | 0.11 | 0.11 | 93 | 1015.1 |
| 20260904214136 | 62 | 285 | 0.0 | 2.0 | 0.00 | 0.11 | 0.11 | 93 | 1015.1 |
| 20260904213628 | 62 | 206 | 1.0 | 3.0 | 0.00 | 0.11 | 0.11 | 93 | 1015.0 |
| 20260904213128 | 62 | 198 | 0.0 | 3.0 | 0.00 | 0.11 | 0.11 | 93 | 1014.9 |
| 20260904213123 | 62 | 201 | 1.0 | 3.0 | 0.00 | 0.11 | 0.11 | 93 | 1014.9 |
| 20260904212105 | 62 | 236 | 0.0 | 3.0 | 0.00 | 0.11 | 0.11 | 93 | 1014.9 |
| 20260904211600 | 62 | 226 | 0.0 | 0.0 | 0.00 | 0.11 | 0.11 | 93 | 1014.9 |
| 20260904211108 | 62 | 229 | 0.0 | 3.0 | 0.00 | 0.11 | 0.11 | 93 | 1015.0 |
| 20260904210856 | 62 | 210 | 0.0 | 3.0 | 0.00 | 0.11 | 0.11 | 93 | 1015.0 |
| 20260904210134 | 62 | 220 | 0.0 | 3.0 | 0.00 | 0.11 | 0.11 | 93 | 1014.9 |
| 20260904205627 | 62 | 204 | 0.0 | 5.0 | 0.00 | 0.11 | 0.11 | 93 | 1014.8 |
| 20260904205121 | 62 | 207 | 1.0 | 5.0 | 0.00 | 0.11 | 0.11 | 93 | 1014.8 |
| 20260904204613 | 62 | 216 | 1.0 | 4.0 | 0.00 | 0.11 | 0.11 | 93 | 1014.7 |
| 20260904204110 | 62 | 206 | 0.0 | 0.0 | 0.00 | 0.11 | 0.11 | 93 | 1014.7 |
| 20260904204104 | 62 | 204 | 0.0 | 2.0 | 0.00 | 0.11 | 0.11 | 93 | 1014.7 |
| 20260904203050 | 62 | 206 | 0.0 | 0.0 | 0.00 | 0.11 | 0.11 | 93 | 1014.5 |
| 20260904202548 | 62 | 206 | 0.0 | 0.0 | 0.00 | 0.11 | 0.11 | 93 | 1014.4 |
| 20260904202042 | 63 | 206 | 0.0 | 0.0 | 0.00 | 0.11 | 0.11 | 93 | 1014.3 |
| 20260904201627 | 63 | 206 | 0.0 | 0.0 | 0.00 | 0.11 | 0.11 | 93 | 1014.4 |
| 20260904201124 | 63 | 206 | 0.0 | 0.0 | 0.00 | 0.11 | 0.11 | 93 | 1014.4 |
| 20260904200620 | 63 | 193 | 0.0 | 0.0 | 0.00 | 0.11 | 0.11 | 92 | 1014.4 |
| 20260904200614 | 63 | 206 | 0.0 | 0.0 | 0.00 | 0.11 | 0.11 | 92 | 1014.4 |
| 20260904195601 | 63 | 221 | 0.0 | 0.0 | 0.00 | 0.11 | 0.11 | 92 | 1014.4 |
| 20260904195050 | 63 | 271 | 0.0 | 5.0 | 0.00 | 0.11 | 0.11 | 92 | 1014.2 |
| 20260904194552 | 63 | 293 | 0.0 | 5.0 | 0.00 | 0.11 | 0.11 | 92 | 1014.1 |
| 20260904194545 | 63 | 247 | 0.0 | 5.0 | 0.00 | 0.11 | 0.11 | 92 | 1014.1 |
| 20260904193536 | 63 | 289 | 1.0 | 4.0 | 0.00 | 0.11 | 0.11 | 92 | 1014.0 |
| 20260904193028 | 63 | 295 | 0.0 | 4.0 | 0.00 | 0.11 | 0.11 | 92 | 1013.9 |
| 20260904192616 | 63 | 195 | 0.0 | 4.0 | 0.00 | 0.11 | 0.11 | 93 | 1013.8 |
| 20260904192108 | 63 | 322 | 0.0 | 2.0 | 0.00 | 0.11 | 0.11 | 93 | 1013.8 |
| 20260904191600 | 63 | 301 | 0.0 | 2.0 | 0.00 | 0.11 | 0.11 | 93 | 1013.9 |
| 20260904191056 | 63 | 255 | 0.0 | 3.0 | 0.00 | 0.11 | 0.11 | 93 | 1014.0 |
| 20260904190550 | 63 | 239 | 0.0 | 4.0 | 0.00 | 0.11 | 0.11 | 93 | 1014.0 |
| 20260904190054 | 63 | 278 | 1.0 | 4.0 | 0.00 | 0.11 | 0.11 | 93 | 1013.9 |
| 20260904185537 | 63 | 242 | 1.0 | 4.0 | 0.00 | 0.11 | 0.11 | 93 | 1013.8 |
| 20260904185028 | 63 | 233 | 1.0 | 4.0 | 0.00 | 0.11 | 0.11 | 93 | 1013.7 |
| 20260904184523 | 63 | 212 | 1.0 | 4.0 | 0.00 | 0.11 | 0.11 | 93 | 1013.5 |
| 20260904184021 | 63 | 275 | 1.0 | 6.0 | 0.00 | 0.11 | 0.11 | 93 | 1013.5 |
| 20260904183612 | 63 | 323 | 1.0 | 5.0 | 0.00 | 0.11 | 0.11 | 93 | 1013.4 |
| 20260904183606 | 63 | 168 | 1.0 | 6.0 | 0.00 | 0.11 | 0.11 | 93 | 1013.3 |
| 20260904183056 | 63 | 330 | 1.0 | 4.0 | 0.00 | 0.11 | 0.11 | 93 | 1013.2 |
| 20260904182749 | 63 | 242 | 1.0 | 5.0 | 0.00 | 0.11 | 0.11 | 93 | 1013.1 |
| 20260904181529 | 63 | 245 | 1.0 | 4.0 | 0.00 | 0.11 | 0.11 | 93 | 1013.1 |
| 20260904181024 | 63 | 234 | 1.0 | 4.0 | 0.00 | 0.11 | 0.11 | 93 | 1013.0 |
| 20260904180514 | 63 | 280 | 1.0 | 5.0 | 0.00 | 0.11 | 0.11 | 93 | 1012.9 |
| 20260904180009 | 63 | 225 | 1.0 | 5.0 | 0.00 | 0.11 | 0.11 | 93 | 1012.9 |
| 20260904175556 | 63 | 211 | 1.0 | 6.0 | 0.00 | 0.11 | 0.11 | 93 | 1012.9 |
| 20260904175045 | 63 | 257 | 1.0 | 6.0 | 0.00 | 0.11 | 0.11 | 93 | 1012.8 |
| 20260904174538 | 63 | 147 | 1.0 | 5.0 | 0.00 | 0.11 | 0.11 | 93 | 1012.6 |
| 20260904174031 | 63 | 54 | 1.0 | 4.0 | 0.00 | 0.11 | 0.11 | 93 | 1012.6 |
| 20260904173524 | 63 | 235 | 1.0 | 5.0 | 0.00 | 0.11 | 0.11 | 93 | 1012.5 |
| 20260904173026 | 63 | 260 | 1.0 | 7.0 | 0.00 | 0.11 | 0.11 | 93 | 1012.4 |
| 20260904172505 | 63 | 222 | 1.0 | 7.0 | 0.00 | 0.11 | 0.11 | 93 | 1012.4 |
| 20260904172001 | 63 | 208 | 1.0 | 6.0 | 0.00 | 0.11 | 0.11 | 93 | 1012.4 |
| 20260904171452 | 63 | 196 | 1.0 | 7.0 | 0.01 | 0.11 | 0.11 | 93 | 1012.3 |
| 20260904170950 | 63 | 201 | 1.0 | 7.0 | 0.01 | 0.11 | 0.11 | 93 | 1012.3 |
| 20260904170538 | 63 | 228 | 1.0 | 7.0 | 0.01 | 0.11 | 0.11 | 93 | 1012.3 |
| 20260904170030 | 63 | 189 | 0.0 | 5.0 | 0.01 | 0.11 | 0.11 | 93 | 1012.2 |
| 20260904165522 | 63 | 209 | 1.0 | 9.0 | 0.01 | 0.11 | 0.11 | 93 | 1012.2 |
| 20260904165013 | 63 | 292 | 1.0 | 9.0 | 0.01 | 0.11 | 0.11 | 93 | 1012.2 |
| 20260904164503 | 64 | 223 | 1.0 | 5.0 | 0.01 | 0.11 | 0.11 | 93 | 1012.2 |
| 20260904163953 | 63 | 229 | 2.0 | 8.0 | 0.01 | 0.11 | 0.11 | 93 | 1012.2 |
| 20260904163444 | 63 | 291 | 2.0 | 8.0 | 0.01 | 0.11 | 0.11 | 94 | 1012.2 |
| 20260904162943 | 63 | 222 | 2.0 | 6.0 | 0.01 | 0.11 | 0.11 | 93 | 1012.4 |
| 20260904162938 | 63 | 220 | 2.0 | 7.0 | 0.01 | 0.11 | 0.11 | 94 | 1012.4 |
| 20260904162018 | 63 | 198 | 1.0 | 6.0 | 0.02 | 0.11 | 0.11 | 93 | 1012.3 |
| 20260904161508 | 63 | 314 | 1.0 | 6.0 | 0.02 | 0.10 | 0.11 | 93 | 1012.2 |
| 20260904161002 | 63 | 265 | 2.0 | 6.0 | 0.02 | 0.10 | 0.10 | 94 | 1012.2 |
| 20260904160452 | 63 | 170 | 2.0 | 7.0 | 0.02 | 0.10 | 0.10 | 93 | 1012.3 |
| 20260904155942 | 63 | 201 | 1.0 | 7.0 | 0.02 | 0.10 | 0.10 | 94 | 1012.1 |
| 20260904155435 | 63 | 226 | 2.0 | 7.0 | 0.04 | 0.10 | 0.10 | 94 | 1012.1 |
| 20260904154927 | 63 | 193 | 2.0 | 7.0 | 0.04 | 0.10 | 0.10 | 93 | 1012.1 |
| 20260904154423 | 63 | 150 | 1.0 | 7.0 | 0.04 | 0.10 | 0.10 | 94 | 1012.0 |
| 20260904154011 | 63 | 211 | 1.0 | 7.0 | 0.06 | 0.10 | 0.10 | 94 | 1012.1 |
| 20260904153500 | 63 | 287 | 1.0 | 7.0 | 0.06 | 0.10 | 0.10 | 94 | 1012.2 |
| 20260904152953 | 63 | 132 | 2.0 | 8.0 | 0.06 | 0.10 | 0.10 | 93 | 1012.4 |
| 20260904152459 | 63 | 350 | 2.0 | 8.0 | 0.06 | 0.10 | 0.10 | 93 | 1012.4 |
| 20260904151937 | 63 | 287 | 2.0 | 7.0 | 0.04 | 0.09 | 0.09 | 93 | 1012.3 |
| 20260904151529 | 63 | 303 | 2.0 | 9.0 | 0.03 | 0.08 | 0.09 | 92 | 1012.1 |
| 20260904151525 | 63 | 193 | 2.0 | 9.0 | 0.04 | 0.09 | 0.09 | 92 | 1012.2 |
| 20260904151422 | 63 | 206 | 2.0 | 9.0 | 0.04 | 0.09 | 0.09 | 93 | 1012.2 |
| 20260904150411 | 63 | 270 | 3.0 | 9.0 | 0.04 | 0.09 | 0.09 | 92 | 1012.2 |
| 20260904145454 | 63 | 281 | 2.0 | 9.0 | 0.02 | 0.06 | 0.07 | 92 | 1012.1 |
| 20260904144947 | 63 | 307 | 3.0 | 9.0 | 0.04 | 0.06 | 0.06 | 91 | 1012.1 |
| 20260904144437 | 64 | 298 | 4.0 | 13.0 | 0.05 | 0.06 | 0.06 | 90 | 1012.0 |
| 20260904143932 | 64 | 272 | 4.0 | 13.0 | 0.03 | 0.05 | 0.05 | 92 | 1012.0 |
| 20260904143927 | 64 | 220 | 3.0 | 13.0 | 0.03 | 0.05 | 0.05 | 90 | 1012.1 |
| 20260904143624 | 64 | 283 | 4.0 | 13.0 | 0.03 | 0.05 | 0.05 | 91 | 1012.0 |
| 20260904142404 | 65 | 305 | 4.0 | 14.0 | 0.05 | 0.05 | 0.05 | 91 | 1011.7 |
| 20260904142359 | 65 | 332 | 4.0 | 14.0 | 0.04 | 0.05 | 0.05 | 92 | 1011.8 |
| 20260904141443 | 65 | 316 | 4.0 | 12.0 | 0.05 | 0.05 | 0.05 | 91 | 1011.6 |
| 20260904140935 | 65 | 328 | 4.0 | 12.0 | 0.05 | 0.05 | 0.05 | 91 | 1011.5 |
| 20260904140444 | 66 | 207 | 3.0 | 9.0 | 0.05 | 0.05 | 0.05 | 90 | 1011.5 |
| 20260904135921 | 67 | 38 | 3.0 | 9.0 | 0.05 | 0.05 | 0.05 | 90 | 1011.5 |
| 20260904135411 | 68 | 356 | 4.0 | 17.0 | 0.04 | 0.04 | 0.04 | 89 | 1011.4 |
| 20260904134906 | 69 | 260 | 6.0 | 17.0 | 0.02 | 0.02 | 0.02 | 90 | 1011.4 |
| 20260904134357 | 69 | 178 | 6.0 | 15.0 | 0.02 | 0.02 | 0.02 | 90 | 1010.9 |
| 20260904133846 | 70 | 193 | 5.0 | 15.0 | 0.02 | 0.02 | 0.02 | 90 | 1010.9 |
| 20260904133338 | 70 | 235 | 5.0 | 15.0 | 0.02 | 0.02 | 0.02 | 90 | 1010.7 |
| 20260904132833 | 70 | 228 | 4.0 | 15.0 | 0.02 | 0.02 | 0.02 | 88 | 1010.8 |
| 20260904132419 | 71 | 213 | 4.0 | 11.0 | 0.01 | 0.01 | 0.01 | 86 | 1011.0 |
| 20260904131911 | 72 | 72 | 5.0 | 13.0 | 0.00 | 0.00 | 0.00 | 82 | 1010.8 |
| 20260904131401 | 73 | 335 | 5.0 | 13.0 | 0.00 | 0.00 | 0.00 | 79 | 1010.5 |
| 20260904130852 | 73 | 146 | 6.0 | 16.0 | 0.00 | 0.00 | 0.00 | 79 | 1010.4 |
| 20260904130345 | 74 | 181 | 6.0 | 16.0 | 0.00 | 0.00 | 0.00 | 78 | 1010.3 |
| 20260904125839 | 73 | 237 | 7.0 | 17.0 | 0.00 | 0.00 | 0.00 | 79 | 1010.3 |
| 20260904125330 | 73 | 237 | 6.0 | 17.0 | 0.00 | 0.00 | 0.00 | 79 | 1010.3 |
| 20260904124827 | 73 | 191 | 5.0 | 14.0 | 0.00 | 0.00 | 0.00 | 81 | 1010.2 |
| 20260904124822 | 73 | 233 | 5.0 | 14.0 | 0.00 | 0.00 | 0.00 | 80 | 1010.4 |
| 20260904123918 | 73 | 257 | 6.0 | 14.0 | 0.00 | 0.00 | 0.00 | 80 | 1010.5 |
| 20260904123814 | 73 | 167 | 7.0 | 18.0 | 0.00 | 0.00 | 0.00 | 80 | 1010.4 |
| 20260904123400 | 73 | 245 | 7.0 | 18.0 | 0.00 | 0.00 | 0.00 | 80 | 1010.5 |
| 20260904122342 | 73 | 247 | 7.0 | 17.0 | 0.00 | 0.00 | 0.00 | 81 | 1010.5 |
| 20260904121832 | 73 | 197 | 7.0 | 14.0 | 0.00 | 0.00 | 0.00 | 82 | 1010.5 |
| 20260904121325 | 72 | 173 | 7.0 | 17.0 | 0.00 | 0.00 | 0.00 | 83 | 1010.4 |
| 20260904120820 | 72 | 214 | 7.0 | 17.0 | 0.00 | 0.00 | 0.00 | 84 | 1010.6 |
| 20260904120415 | 72 | 280 | 6.0 | 19.0 | 0.00 | 0.00 | 0.00 | 85 | 1010.5 |
| 20260904115907 | 71 | 177 | 6.0 | 19.0 | 0.00 | 0.00 | 0.00 | 86 | 1010.5 |
| 20260904115350 | 71 | 194 | 6.0 | 15.0 | 0.00 | 0.00 | 0.00 | 87 | 1010.6 |
| 20260904114843 | 71 | 234 | 5.0 | 15.0 | 0.00 | 0.00 | 0.00 | 87 | 1010.6 |
| 20260904114333 | 71 | 203 | 5.0 | 12.0 | 0.00 | 0.00 | 0.00 | 87 | 1010.7 |
| 20260904113824 | 71 | 191 | 6.0 | 12.0 | 0.00 | 0.00 | 0.00 | 87 | 1010.6 |
| 20260904113316 | 71 | 230 | 6.0 | 16.0 | 0.00 | 0.00 | 0.00 | 87 | 1010.7 |
| 20260904112814 | 71 | 214 | 5.0 | 16.0 | 0.00 | 0.00 | 0.00 | 86 | 1010.7 |
| 20260904112308 | 71 | 179 | 5.0 | 15.0 | 0.00 | 0.00 | 0.00 | 85 | 1010.7 |
| 20260904111857 | 72 | 250 | 5.0 | 15.0 | 0.00 | 0.00 | 0.00 | 83 | 1010.7 |
| 20260904111339 | 73 | 205 | 5.0 | 15.0 | 0.00 | 0.00 | 0.00 | 80 | 1010.4 |
| 20260904110826 | 73 | 197 | 5.0 | 15.0 | 0.00 | 0.00 | 0.00 | 79 | 1010.6 |
| 20260904110531 | 73 | 149 | 5.0 | 12.0 | 0.00 | 0.00 | 0.00 | 79 | 1010.6 |
| 20260904110331 | 73 | 215 | 5.0 | 12.0 | 0.00 | 0.00 | 0.00 | 79 | 1010.6 |
| 20260904105306 | 73 | 248 | 6.0 | 21.0 | 0.00 | 0.00 | 0.00 | 79 | 1010.6 |
| 20260904104802 | 73 | 214 | 7.0 | 21.0 | 0.00 | 0.00 | 0.00 | 78 | 1010.7 |
| 20260904104353 | 73 | 211 | 6.0 | 17.0 | 0.00 | 0.00 | 0.00 | 78 | 1010.6 |